Showing default

YAOGAN-39 01B, 57728

Orbit data source: Space-Track

YAOGAN-39 01B, 57728 is a payload satellite owned by PLA GAD (CN) in LEO that was launched on Thu, 31 Aug 2023 UTC via a CHANG ZHENG 2D launch vehicle from the Xichang Space Center, China (XSC). Payload-class satellites include a variety of spacecraft equipped with specific instruments for various scientific and technological missions. These include communications satellites like Starlink; space stations such as the ISS; scientific satellites like the Hubble; Earth observation satellites from companies like Planet Labs, Umbra, and HawkEye 360; GPS; miniature CubeSats for education and research; and military/defense satellites.

Loading next visibility...
Identifier
57728, 2023-130B
Orbit
LEO
Last TLE update
3 hours ago
Origin
Manufacturer
SAST
Mission
Operational Defense Sigint
Bus & Motor
Unknown
Mass
~300 kg wet, ~300 kg dry
Launch date (UTC)
2023-08-31 (2 years ago)
Launch vehicle
CHANG ZHENG 2D
Launch site
Xichang Space Center, China (XSC)
Object type
Payload
Rocket body
Debris
Shape & HBR
Box + 2 Pan, 5 m
Radar Cross Section
11.063 m², Large (>1 m²)

Expand to show TLE details & history

TLE from 3 hours ago
0 YAOGAN-39 01B
1 57728U 23130B   25187.21641449  .00004186  00000-0  20893-3 0  9996
2 57728  34.9938 148.9526 0014425 186.4821 173.5707 15.16862784102908
Epoch: 2025-07-06T05:11Z
TLE epoch observation values (Epoch: 2025-07-06T05:11:38.211Z)
Latitude
-0.00001°
Longitude
146.60009°
Altitude
524.118 km
Speed
7.598 km/s
True Right ascension
09h 55m 48s
True Declination
0° 00' 00"
Sunlit
Object was in daylight at epoch
Visualization orbit readout
Latitude
-22.4394°
Longitude
109.90532°
Altitude
526.221 km
Speed
7.598 km/s
Apparent Right ascension
07h 45m 57s
Apparent Declination
-30° 45' 30"
Sunlit
Object is in daylight
Visualization observer readout
Local Sidereal Time
20:08:01
Azimuth
27.82° NE
Elevation
-79.801°
Doppler factor
1
Orbital elements
Apogee altitude
528.52 km
Perigee altitude
508.623 km
Semi-major axis
6,896.709 km
Eccentricity
0.00144
Inclination
34.9938°
RAAN
148.9526°
Arg. of periapsis
186.4821°
True anomaly
Unknown
Mean anomaly
173.5707°
Eccentric anomaly
Unknown
Mean motion
3.78949 °/min
Orbital period
95 mins
BSTAR
0.00020893
Loading maneuver chart data...
Loading SW <> Apogee altitude chart data...
Loading historical data...
Loading historical data...
Loading historical data...
Loading historical data...
Loading historical data...
Loading historical data...
Loading historical data...
Other satellites on launch #130 in the year 2023 (2023-08-31 UTC)

YAOGAN-39 01B Visibility forecast

Observer location: undefined°, undefined°

Span
Click to sort rows by Start time (UTC) header in descending order
Start Az.
Max El. time (UTC)
Max El. Az.
Max El.
End time (UTC)
End Az.
5 mins2025-07-07 02:01:14.320Z208.222° SW2025-07-07 02:03:14.320Z157.128° SSE26.19°2025-07-07 02:06:14.320Z106.209° ESE
6 mins2025-07-07 03:40:14.320Z243.827° WSW2025-07-07 03:43:14.320Z164.394° S31.841°2025-07-07 03:46:14.320Z113.491° SE
4 mins2025-07-07 05:21:14.320Z229.795° WSW2025-07-07 05:22:14.320Z207.668° SW22.73°2025-07-07 05:25:14.320Z147.031° SSE
|